RADUGA 15 [-]

Last updated on June 24, 2019, 3:40 a.m. UTC

1 15057U 84063A   19173.89900116 -.00000301  00000-0  00000-0 0  9999
2 15057  13.2888 333.8333 0002503  76.3469 279.3580  1.00369840115519
UTC
Height (km)
Latitude
Longitude
Inclination
Orbital Period
UTC large
Height (km)
Speed (km/s)
/
Latitude / Longitude
Inclination (degrees)
Orbital Period (minutes)
Azimuth
Elevation
Range (km)
Doppler Factor
iOS Compass Heading
iOS Angle

Next 30 passes for location: Hong Kong

Rise time Rise Azimuth (degrees) Set time Set Azimuth (degrees) Duration Max altitude (degrees)

No matching passes for this satellites